Location: Cheching
(60.0667°N, 164.2167°W)
Time: 12:38:03
(UTC+00:00)

NOAA 19 - Pass Details

Date: 20 January 2021
Orbit: 840 x 862 km, 99.2° (Epoch: 01 March)

Event Time Altitude Azimuth Distance (km) Brightness Sun altitude
Rises 17:33:00 0° 19° (NNE) 3,437 8.4 -14.2°
Reaches altitude 10° 17:35:30 10° 26° (NNE) 2,493 7.8 -13.9°
Maximum altitude 17:40:49 46° 99° (E) 1,125 6.4 -13.2°
Drops below altitude 10° 17:46:04 10° 173° (S) 2,464 8.0 -12.6°
Sets 17:48:31 0° 180° (S) 3,393 8.6 -12.3°
